Home > Weather > Glennallen > Past weeks

Flag for USA Past Weather in Glennallen, Alaska, USA — Yesterday and Last 2 Weeks

Now
62 °F

Broken clouds.


Feels Like: 62 °F
Forecast: 42 / 67 °F
Wind: 10 mph from Southeast

Location: Gulkana Airport

Current Time: Jun 26, 2016 at 6:29:07 PM

Latest Report: Jun 26, 2016 at 5:53 PM


Visibility: 10 mi

Pressure: 30.10 "Hg

Humidity: 50%

Dew Point: 43 °F

Location of GlennallenLocation

Past Weather in Glennallen — Graph

°F

Glennallen Temperature Yesterday

Maximum temperature yesterday: 63 °F (at 11:53 AM)
Minimum temperature yesterday: 48 °F (at 4:53 AM)
Average temperature yesterday: 56 °F

High & Low Weather Summary for the Past Weeks

 TemperatureHumidityPressure
High81 °F (Jun 16, 5:53 PM)97% (Jun 26, 4:53 AM)30.14 "Hg (Jun 26, 4:53 AM)
Low37 °F (Jun 12, 4:53 AM)20% (Jun 15, 9:53 PM)29.72 "Hg (Jun 23, 6:53 PM)
Average59 °F53%29.95 "Hg
* Reported Jun 11 4:53 PM — Jun 26 4:53 PM, Glennallen, Weather by CustomWeather, © 2016

Note: Actual official high and low records may vary slightly from our data, if they occured in-between our weather recording intervals... More about our weather records

Advertising

Glennallen Weather History for the Previous 24 Hours

Scroll right to see more
 ConditionsComfort  
Time TempWeatherWind HumidityBarometerVisibility
4:53 PM
Sun, Jun 26
64 °FSunny.13 mph49%30.10 "Hg10 mi
3:53 PM62 °FSunny.9 mph58%30.12 "Hg10 mi
2:53 PM62 °FSunny.10 mph60%30.12 "Hg10 mi
1:53 PM58 °FBroken clouds.8 mph75%30.13 "Hg10 mi
12:53 PM56 °FBroken clouds.3 mph81%30.13 "Hg10 mi
11:53 AM53 °FLight rain. Mostly cloudy.No wind86%30.13 "Hg10 mi
10:53 AM52 °FLight rain. Overcast.No wind86%30.12 "Hg10 mi
9:53 AM51 °FLight rain. Mostly cloudy.No wind89%30.11 "Hg10 mi
8:53 AM52 °FMostly cloudy.No wind86%30.09 "Hg10 mi
7:53 AM51 °FLow clouds.No wind86%30.07 "Hg10 mi
6:53 AM50 °FMore clouds than sun.No wind93%30.06 "Hg10 mi
5:53 AM50 °FMore clouds than sun.No wind89%30.06 "Hg10 mi
4:53 AM49 °FOvercast.5 mph97%30.05 "Hg10 mi
3:53 AM50 °FLight rain. Overcast.6 mph89%30.05 "Hg10 mi
2:53 AM50 °FLight rain. Mostly cloudy.10 mph93%30.05 "Hg10 mi
1:53 AM50 °FLight rain. Mostly cloudy.13 mph93%30.04 "Hg10 mi
12:53 AM51 °FLight rain. Overcast.13 mph89%30.02 "Hg10 mi
11:53 PM
Sat, Jun 25
52 °FLight rain. Overcast.12 mph86%30.00 "Hg10 mi
10:53 PM53 °FLight rain. Overcast.10 mph86%29.98 "Hg10 mi
9:53 PM55 °FRain. Mostly cloudy.9 mph83%29.97 "Hg6 mi
8:53 PM59 °FOvercast.10 mph64%29.96 "Hg10 mi
7:53 PM61 °FOvercast.14 mph62%29.95 "Hg10 mi
6:53 PM62 °FMostly cloudy.9 mph60%29.94 "Hg10 mi
Weather by CustomWeather, © 2016

See weather overviewHow to use our weather pages